QPF
0.01 0.04 0.05 0.05 0.06 0.02 0.00 0.00 0.00 0.00 0.00 0.00 0.00 0.00 0.00 0.00 0.01 0.01 0.00 0.00 0.00 0.00 0.00 0.00 0.00 0.00 0.00 0.00 0.00 0.00 0.00 0.00 0.00 0.00 0.00 0.00 0.00 0.00 0.00 0.00 0.00 0.00 0.00 0.00 0.00 0.00 0.01 0.01 0.02
0.02 0.05 0.06 0.11 0.06 0.00 0.00 0.00 0.00 0.00 0.00 0.00 0.00 0.00 0.00 0.00 0.00 0.00 0.00 0.00 0.00 0.00 0.00 0.00 0.00 0.00 0.00 0.00 0.00 0.00 0.00 0.00 0.00 0.00 0.00 0.00 0.00 0.00 0.00 0.00 0.00 0.00 0.00 0.00 0.00 0.00 0.01 0.01 0.02
0.02 0.04 0.07 0.11 0.02 0.00 0.00 0.00 0.00 0.00 0.00 0.00 0.00 0.00 0.00 0.00 0.00 0.00 0.01 0.00 0.00 0.00 0.00 0.00 0.00 0.00 0.00 0.00 0.00 0.00 0.00 0.00 0.01 0.00 0.00 0.00 0.00 0.00 0.00 0.00 0.00 0.00 0.00 0.00 0.00 0.00 0.00 0.01 0.01
0.01 0.03 0.09 0.07 0.01 0.00 0.00 0.00 0.00 0.00 0.00 0.00 0.00 0.00 0.00 0.00 0.00 0.00 0.00 0.00 0.00 0.00 0.00 0.00 0.00 0.00 0.00 0.00 0.00 0.00 0.00 0.00 0.00 0.00 0.00 0.00 0.00 0.00 0.00 0.00 0.00 0.00 0.00 0.00 0.00 0.00 0.00 0.00 0.00
0.02 0.05 0.08 0.02 0.00 0.00 0.00 0.00 0.00 0.00 0.00 0.00 0.00 0.00 0.00 0.00 0.00 0.00 0.00 0.00 0.00 0.00 0.00 0.00 0.00 0.00 0.00 0.00 0.00 0.00 0.01 0.00 0.01 0.00 0.00 0.00 0.00 0.00 0.00 0.00 0.00 0.00 0.00 0.00 0.00 0.00 0.00 0.00 0.00
0.03 0.10 0.09 0.02 0.01 0.00 0.00 0.00 0.00 0.00 0.00 0.00 0.00 0.00 0.00 0.00 0.00 0.00 0.00 0.00 0.00 0.00 0.00 0.00 0.00 0.00 0.00 0.00 0.00 0.00 0.01 0.01 0.02 0.01 0.00 0.00 0.00 0.00 0.00 0.00 0.00 0.00 0.00 0.00 0.00 0.00 0.00 0.00 0.00
0.03 0.13 0.13 0.05 0.02 0.01 0.01 0.00 0.00 0.00 0.00 0.00 0.00 0.00 0.00 0.00 0.00 0.00 0.00 0.00 0.00 0.00 0.00 0.00 0.00 0.00 0.00 0.00 0.00 0.00 0.01 0.02 0.02 0.01 0.01 0.00 0.00 0.00 0.00 0.00 0.00 0.00 0.00 0.00 0.00 0.00 0.00 0.00 0.00
0.02 0.11 0.15 0.08 0.03 0.02 0.01 0.00 0.00 0.00 0.00 0.00 0.00 0.00 0.00 0.00 0.00 0.00 0.00 0.00 0.00 0.00 0.00 0.00 0.00 0.00 0.00 0.00 0.00 0.00 0.01 0.01 0.01 0.01 0.01 0.00 0.00 0.00 0.00 0.00 0.00 0.00 0.00 0.00 0.00 0.00 0.00 0.00 0.00
0.03 0.09 0.15 0.14 0.08 0.04 0.02 0.01 0.00 0.01 0.01 0.01 0.00 0.00 0.00 0.00 0.00 0.00 0.00 0.00 0.00 0.01 0.01 0.00 0.00 0.00 0.00 0.00 0.00 0.01 0.01 0.01 0.01 0.01 0.01 0.00 0.00 0.00 0.00 0.00 0.00 0.00 0.00 0.00 0.00 0.00 0.00 0.00 0.00
0.04 0.11 0.20 0.19 0.17 0.07 0.02 0.01 0.00 0.01 0.01 0.01 0.01 0.01 0.00 0.00 0.00 0.00 0.00 0.00 0.00 0.00 0.00 0.00 0.01 0.00 0.00 0.00 0.00 0.01 0.00 0.00 0.00 0.00 0.00 0.00 0.00 0.01 0.00 0.00 0.00 0.00 0.00 0.00 0.00 0.00 0.00 0.00 0.00
0.03 0.07 0.17 0.20 0.13 0.05 0.02 0.01 0.01 0.01 0.01 0.01 0.01 0.01 0.00 0.01 0.01 0.01 0.01 0.01 0.01 0.01 0.01 0.00 0.01 0.01 0.01 0.01 0.00 0.00 0.00 0.00 0.00 0.00 0.00 0.01 0.01 0.01 0.00 0.00 0.00 0.00 0.00 0.00 0.00 0.00 0.00 0.00 0.00
0.02 0.03 0.04 0.03 0.02 0.01 0.01 0.01 0.02 0.02 0.02 0.02 0.01 0.01 0.01 0.01 0.02 0.02 0.02 0.03 0.03 0.02 0.01 0.01 0.01 0.01 0.01 0.01 0.01 0.00 0.00 0.00 0.00 0.00 0.01 0.01 0.01 0.01 0.00 0.00 0.00 0.00 0.00 0.00 0.00 0.00 0.00 0.00 0.01
0.01 0.01 0.01 0.01 0.01 0.00 0.00 0.01 0.02 0.03 0.03 0.03 0.02 0.02 0.02 0.03 0.03 0.04 0.05 0.05 0.05 0.04 0.04 0.03 0.03 0.03 0.03 0.02 0.02 0.02 0.01 0.01 0.01 0.00 0.01 0.01 0.00 0.00 0.01 0.00 0.00 0.00 0.00 0.00 0.00 0.00 0.00 0.00 0.01
0.01 0.01 0.01 0.01 0.01 0.02 0.01 0.02 0.03 0.04 0.05 0.03 0.02 0.03 0.04 0.05 0.06 0.07 0.08 0.08 0.07 0.06 0.06 0.07 0.06 0.05 0.04 0.03 0.03 0.02 0.02 0.01 0.01 0.01 0.01 0.01 0.01 0.00 0.01 0.01 0.00 0.00 0.00 0.00 0.00 0.00 0.00 0.00 0.00
0.00 0.00 0.01 0.02 0.02 0.03 0.03 0.03 0.05 0.06 0.05 0.04 0.04 0.04 0.05 0.06 0.08 0.10 0.11 0.10 0.09 0.09 0.09 0.08 0.09 0.09 0.08 0.06 0.05 0.04 0.04 0.03 0.02 0.01 0.01 0.02 0.01 0.01 0.01 0.01 0.00 0.00 0.00 0.00 0.00 0.00 0.00 0.00 0.00
0.00 0.01 0.01 0.02 0.03 0.04 0.04 0.04 0.06 0.07 0.06 0.05 0.04 0.04 0.05 0.06 0.08 0.09 0.10 0.12 0.10 0.11 0.12 0.11 0.11 0.12 0.11 0.09 0.08 0.08 0.08 0.05 0.05 0.03 0.03 0.03 0.02 0.01 0.01 0.01 0.01 0.01 0.00 0.00 0.00 0.00 0.00 0.00 0.00
0.01 0.02 0.01 0.02 0.03 0.05 0.06 0.07 0.06 0.05 0.04 0.03 0.04 0.05 0.05 0.05 0.06 0.07 0.08 0.09 0.11 0.12 0.13 0.14 0.15 0.16 0.15 0.15 0.15 0.14 0.13 0.11 0.10 0.09 0.07 0.06 0.05 0.04 0.03 0.02 0.01 0.01 0.00 0.00 0.00 0.00 0.00 0.00 0.00
0.01 0.01 0.01 0.01 0.02 0.03 0.04 0.04 0.04 0.03 0.03 0.03 0.04 0.04 0.04 0.04 0.04 0.04 0.04 0.05 0.07 0.08 0.09 0.13 0.15 0.16 0.16 0.16 0.20 0.21 0.20 0.20 0.20 0.19 0.13 0.09 0.07 0.06 0.05 0.04 0.03 0.02 0.01 0.00 0.00 0.00 0.00 0.00 0.00
0.00 0.00 0.00 0.00 0.00 0.00 0.01 0.02 0.02 0.03 0.03 0.02 0.02 0.03 0.03 0.02 0.02 0.02 0.03 0.05 0.07 0.06 0.06 0.08 0.10 0.13 0.15 0.16 0.22 0.30 0.40 0.40 0.30 0.24 0.19 0.12 0.10 0.10 0.08 0.07 0.07 0.05 0.04 0.03 0.02 0.01 0.01 0.01 0.01
0.00 0.00 0.00 0.00 0.00 0.00 0.01 0.01 0.02 0.02 0.02 0.02 0.01 0.03 0.04 0.03 0.02 0.01 0.02 0.04 0.04 0.05 0.06 0.06 0.09 0.12 0.14 0.17 0.23 0.39 0.57 0.57 0.43 0.32 0.26 0.21 0.16 0.13 0.12 0.11 0.09 0.09 0.08 0.07 0.06 0.05 0.04 0.03 0.02
0.00 0.00 0.00 0.00 0.00 0.00 0.00 0.01 0.02 0.03 0.02 0.02 0.02 0.05 0.06 0.06 0.06 0.06 0.05 0.06 0.07 0.05 0.05 0.06 0.07 0.08 0.12 0.19 0.26 0.39 0.52 0.60 0.51 0.39 0.37 0.33 0.25 0.19 0.17 0.16 0.14 0.12 0.10 0.11 0.11 0.08 0.08 0.06 0.05
0.00 0.00 0.00 0.00 0.00 0.00 0.00 0.00 0.02 0.03 0.04 0.04 0.04 0.06 0.08 0.09 0.08 0.10 0.08 0.07 0.07 0.06 0.05 0.04 0.05 0.06 0.09 0.13 0.22 0.33 0.44 0.52 0.55 0.49 0.48 0.44 0.40 0.35 0.28 0.21 0.17 0.14 0.12 0.12 0.11 0.09 0.09 0.10 0.09
0.00 0.00 0.00 0.00 0.00 0.00 0.00 0.00 0.02 0.03 0.05 0.05 0.06 0.06 0.07 0.07 0.09 0.11 0.09 0.08 0.06 0.04 0.03 0.03 0.04 0.06 0.07 0.11 0.20 0.31 0.42 0.49 0.54 0.55 0.51 0.47 0.45 0.39 0.31 0.26 0.22 0.18 0.14 0.12 0.12 0.12 0.11 0.10 0.10
0.00 0.00 0.00 0.00 0.00 0.00 0.00 0.01 0.03 0.04 0.05 0.06 0.06 0.07 0.09 0.10 0.13 0.13 0.13 0.10 0.07 0.05 0.03 0.04 0.04 0.05 0.06 0.08 0.14 0.20 0.27 0.32 0.36 0.39 0.44 0.43 0.38 0.34 0.27 0.24 0.22 0.19 0.17 0.15 0.14 0.14 0.14 0.13 0.14
0.00 0.00 0.00 0.00 0.00 0.00 0.00 0.01 0.04 0.05 0.05 0.06 0.06 0.08 0.11 0.10 0.09 0.10 0.12 0.10 0.09 0.07 0.05 0.03 0.04 0.04 0.05 0.06 0.08 0.11 0.15 0.19 0.24 0.30 0.33 0.33 0.31 0.30 0.28 0.25 0.21 0.19 0.19 0.16 0.14 0.15 0.15 0.14 0.14
0.00 0.00 0.00 0.00 0.01 0.01 0.01 0.03 0.04 0.06 0.05 0.05 0.04 0.05 0.08 0.08 0.09 0.11 0.14 0.12 0.12 0.10 0.06 0.05 0.06 0.05 0.04 0.05 0.06 0.08 0.11 0.14 0.18 0.19 0.20 0.22 0.23 0.25 0.26 0.27 0.26 0.22 0.20 0.18 0.18 0.18 0.16 0.17 0.16
0.00 0.00 0.00 0.00 0.00 0.01 0.02 0.03 0.03 0.03 0.03 0.04 0.04 0.05 0.09 0.12 0.10 0.10 0.13 0.13 0.12 0.10 0.08 0.06 0.06 0.06 0.05 0.04 0.05 0.07 0.12 0.12 0.11 0.12 0.12 0.13 0.15 0.17 0.19 0.22 0.25 0.23 0.21 0.22 0.22 0.23 0.22 0.22 0.22
0.00 0.00 0.00 0.00 0.00 0.01 0.01 0.01 0.01 0.03 0.04 0.05 0.06 0.07 0.08 0.11 0.11 0.09 0.11 0.12 0.10 0.09 0.10 0.09 0.08 0.09 0.08 0.08 0.07 0.07 0.11 0.16 0.14 0.15 0.17 0.15 0.16 0.17 0.15 0.15 0.16 0.17 0.18 0.18 0.19 0.20 0.23 0.22 0.20
0.00 0.00 0.00 0.00 0.00 0.01 0.02 0.02 0.02 0.04 0.04 0.04 0.05 0.07 0.06 0.08 0.08 0.07 0.07 0.10 0.10 0.09 0.11 0.10 0.08 0.09 0.12 0.11 0.09 0.07 0.07 0.09 0.11 0.15 0.18 0.18 0.20 0.21 0.19 0.17 0.18 0.19 0.19 0.18 0.18 0.18 0.18 0.16 0.15
0.00 0.00 0.00 0.00 0.00 0.01 0.01 0.02 0.02 0.03 0.03 0.02 0.03 0.03 0.03 0.04 0.05 0.06 0.05 0.05 0.05 0.06 0.07 0.07 0.06 0.06 0.08 0.07 0.08 0.08 0.06 0.07 0.10 0.14 0.16 0.16 0.18 0.19 0.18 0.19 0.18 0.18 0.18 0.17 0.16 0.14 0.12 0.12 0.11
MSLP
1008.76 1009.91 1011.29 1012.71 1013.96 1014.86 1015.32 1015.32 1014.96 1014.38 1013.78 1013.31 1013.09 1013.13 1013.40 1013.78 1014.14 1014.39 1014.44 1014.32 1014.07 1013.79 1013.56 1013.48 1013.56 1013.78 1014.08 1014.40 1014.65 1014.80 1014.83 1014.79 1014.73 1014.71 1014.77 1014.92 1015.15 1015.41 1015.64 1015.81 1015.87 1015.84 1015.74 1015.61 1015.48 1015.40 1015.37 1015.38 1015.42
1008.94 1010.25 1011.72 1013.15 1014.32 1015.08 1015.35 1015.16 1014.62 1013.91 1013.23 1012.73 1012.51 1012.57 1012.85 1013.24 1013.61 1013.86 1013.93 1013.84 1013.66 1013.47 1013.35 1013.37 1013.55 1013.84 1014.20 1014.52 1014.77 1014.91 1014.94 1014.91 1014.88 1014.89 1014.98 1015.16 1015.38 1015.61 1015.80 1015.90 1015.90 1015.83 1015.71 1015.58 1015.48 1015.44 1015.45 1015.49 1015.54
1009.31 1010.73 1012.24 1013.60 1014.63 1015.20 1015.26 1014.88 1014.20 1013.41 1012.71 1012.23 1012.06 1012.16 1012.48 1012.87 1013.23 1013.45 1013.51 1013.44 1013.30 1013.18 1013.16 1013.28 1013.55 1013.91 1014.30 1014.64 1014.89 1015.02 1015.06 1015.04 1015.03 1015.07 1015.18 1015.36 1015.57 1015.75 1015.88 1015.91 1015.85 1015.74 1015.60 1015.49 1015.44 1015.45 1015.51 1015.60 1015.68
1009.92 1011.40 1012.87 1014.10 1014.94 1015.28 1015.12 1014.57 1013.78 1012.96 1012.29 1011.88 1011.78 1011.95 1012.29 1012.68 1013.01 1013.19 1013.22 1013.14 1013.03 1012.96 1013.02 1013.23 1013.57 1013.99 1014.40 1014.76 1015.00 1015.12 1015.15 1015.14 1015.15 1015.22 1015.35 1015.52 1015.70 1015.84 1015.91 1015.87 1015.76 1015.62 1015.48 1015.40 1015.39 1015.46 1015.58 1015.72 1015.84
1010.76 1012.24 1013.60 1014.65 1015.25 1015.35 1014.99 1014.28 1013.43 1012.61 1012.00 1011.68 1011.67 1011.91 1012.28 1012.66 1012.95 1013.08 1013.06 1012.96 1012.86 1012.84 1012.95 1013.22 1013.62 1014.07 1014.49 1014.84 1015.06 1015.17 1015.20 1015.20 1015.23 1015.31 1015.46 1015.64 1015.80 1015.90 1015.92 1015.84 1015.70 1015.53 1015.40 1015.35 1015.38 1015.50 1015.68 1015.86 1016.00
1011.75 1013.17 1014.38 1015.21 1015.56 1015.42 1014.87 1014.05 1013.15 1012.37 1011.84 1011.63 1011.71 1012.01 1012.40 1012.75 1012.99 1013.06 1013.00 1012.88 1012.78 1012.79 1012.95 1013.26 1013.68 1014.14 1014.55 1014.87 1015.06 1015.15 1015.17 1015.19 1015.24 1015.35 1015.52 1015.71 1015.87 1015.96 1015.95 1015.85 1015.69 1015.52 1015.40 1015.37 1015.44 1015.60 1015.80 1016.00 1016.16
1012.76 1014.06 1015.08 1015.68 1015.79 1015.44 1014.73 1013.83 1012.94 1012.21 1011.78 1011.67 1011.83 1012.17 1012.56 1012.89 1013.07 1013.09 1012.99 1012.85 1012.76 1012.79 1012.97 1013.30 1013.72 1014.16 1014.55 1014.83 1014.99 1015.06 1015.08 1015.11 1015.19 1015.34 1015.55 1015.76 1015.94 1016.03 1016.03 1015.92 1015.77 1015.61 1015.50 1015.49 1015.57 1015.73 1015.93 1016.13 1016.29
1013.62 1014.77 1015.58 1015.96 1015.86 1015.34 1014.53 1013.60 1012.74 1012.10 1011.76 1011.74 1011.96 1012.32 1012.71 1012.99 1013.13 1013.11 1012.98 1012.83 1012.75 1012.79 1012.98 1013.31 1013.72 1014.13 1014.47 1014.71 1014.84 1014.90 1014.92 1014.98 1015.10 1015.30 1015.54 1015.80 1016.00 1016.12 1016.14 1016.05 1015.91 1015.77 1015.68 1015.67 1015.74 1015.89 1016.07 1016.24 1016.37
1014.21 1015.19 1015.80 1015.98 1015.72 1015.09 1014.24 1013.34 1012.55 1012.00 1011.76 1011.81 1012.08 1012.44 1012.80 1013.04 1013.13 1013.07 1012.93 1012.78 1012.70 1012.75 1012.95 1013.26 1013.63 1014.00 1014.29 1014.49 1014.60 1014.66 1014.71 1014.80 1014.97 1015.22 1015.52 1015.81 1016.06 1016.21 1016.25 1016.20 1016.09 1015.97 1015.89 1015.88 1015.93 1016.04 1016.18 1016.31 1016.40
1014.48 1015.28 1015.71 1015.73 1015.36 1014.70 1013.88 1013.05 1012.37 1011.94 1011.79 1011.90 1012.18 1012.53 1012.84 1013.04 1013.08 1013.00 1012.84 1012.69 1012.62 1012.67 1012.85 1013.13 1013.45 1013.76 1014.01 1014.18 1014.28 1014.35 1014.44 1014.59 1014.81 1015.11 1015.45 1015.79 1016.07 1016.25 1016.33 1016.31 1016.24 1016.15 1016.08 1016.07 1016.10 1016.17 1016.26 1016.34 1016.39
1014.46 1015.08 1015.36 1015.28 1014.87 1014.24 1013.51 1012.81 1012.27 1011.96 1011.90 1012.05 1012.33 1012.64 1012.89 1013.03 1013.03 1012.92 1012.75 1012.60 1012.53 1012.56 1012.70 1012.92 1013.18 1013.43 1013.63 1013.77 1013.88 1013.98 1014.12 1014.32 1014.60 1014.95 1015.33 1015.69 1015.99 1016.20 1016.31 1016.33 1016.30 1016.24 1016.20 1016.19 1016.20 1016.24 1016.29 1016.33 1016.36
1014.28 1014.75 1014.91 1014.77 1014.38 1013.84 1013.25 1012.72 1012.34 1012.16 1012.18 1012.35 1012.60 1012.86 1013.04 1013.11 1013.05 1012.91 1012.73 1012.56 1012.46 1012.45 1012.53 1012.67 1012.85 1013.02 1013.17 1013.29 1013.41 1013.54 1013.73 1013.99 1014.33 1014.71 1015.11 1015.48 1015.79 1016.01 1016.15 1016.20 1016.21 1016.20 1016.20 1016.21 1016.24 1016.26 1016.29 1016.30 1016.31
1014.10 1014.44 1014.52 1014.38 1014.06 1013.65 1013.24 1012.90 1012.69 1012.63 1012.72 1012.89 1013.09 1013.27 1013.36 1013.35 1013.23 1013.04 1012.83 1012.63 1012.48 1012.40 1012.39 1012.43 1012.50 1012.58 1012.67 1012.76 1012.88 1013.05 1013.29 1013.60 1013.97 1014.37 1014.77 1015.13 1015.43 1015.66 1015.81 1015.91 1015.97 1016.02 1016.07 1016.13 1016.19 1016.24 1016.26 1016.28 1016.29
1014.13 1014.36 1014.40 1014.27 1014.06 1013.81 1013.59 1013.44 1013.40 1013.45 1013.57 1013.72 1013.85 1013.93 1013.92 1013.81 1013.63 1013.38 1013.12 1012.86 1012.64 1012.47 1012.34 1012.25 1012.19 1012.16 1012.17 1012.22 1012.34 1012.53 1012.79 1013.13 1013.52 1013.92 1014.30 1014.64 1014.92 1015.14 1015.31 1015.44 1015.57 1015.70 1015.83 1015.96 1016.08 1016.17 1016.24 1016.27 1016.30
1014.48 1014.62 1014.63 1014.56 1014.46 1014.38 1014.35 1014.38 1014.47 1014.60 1014.74 1014.84 1014.88 1014.84 1014.71 1014.51 1014.24 1013.93 1013.60 1013.28 1012.96 1012.68 1012.41 1012.17 1011.97 1011.82 1011.73 1011.72 1011.81 1011.99 1012.27 1012.61 1012.99 1013.37 1013.73 1014.03 1014.29 1014.50 1014.69 1014.87 1015.07 1015.29 1015.52 1015.74 1015.94 1016.10 1016.22 1016.30 1016.36
1015.17 1015.24 1015.24 1015.23 1015.25 1015.33 1015.48 1015.67 1015.86 1016.04 1016.15 1016.18 1016.11 1015.94 1015.69 1015.38 1015.02 1014.64 1014.25 1013.85 1013.44 1013.04 1012.63 1012.24 1011.88 1011.59 1011.39 1011.30 1011.33 1011.49 1011.75 1012.08 1012.43 1012.78 1013.09 1013.37 1013.60 1013.81 1014.02 1014.26 1014.54 1014.85 1015.18 1015.51 1015.80 1016.05 1016.23 1016.37 1016.47
1016.12 1016.15 1016.16 1016.21 1016.36 1016.59 1016.88 1017.18 1017.45 1017.63 1017.69 1017.62 1017.42 1017.12 1016.75 1016.33 1015.89 1015.45 1015.00 1014.53 1014.04 1013.52 1012.98 1012.44 1011.94 1011.50 1011.18 1011.00 1010.97 1011.07 1011.29 1011.58 1011.90 1012.20 1012.48 1012.72 1012.93 1013.15 1013.40 1013.69 1014.05 1014.46 1014.89 1015.31 1015.69 1016.02 1016.27 1016.46 1016.61
1017.19 1017.19 1017.23 1017.36 1017.62 1017.98 1018.39 1018.78 1019.08 1019.24 1019.22 1019.03 1018.70 1018.26 1017.76 1017.25 1016.75 1016.26 1015.77 1015.26 1014.70 1014.10 1013.45 1012.78 1012.14 1011.58 1011.14 1010.86 1010.74 1010.78 1010.94 1011.18 1011.45 1011.71 1011.95 1012.16 1012.37 1012.60 1012.88 1013.24 1013.67 1014.15 1014.66 1015.16 1015.62 1016.01 1016.32 1016.56 1016.75
1018.21 1018.20 1018.29 1018.52 1018.89 1019.37 1019.87 1020.32 1020.63 1020.73 1020.61 1020.30 1019.83 1019.26 1018.65 1018.07 1017.51 1017.00 1016.49 1015.96 1015.37 1014.71 1013.98 1013.22 1012.48 1011.80 1011.26 1010.88 1010.68 1010.64 1010.74 1010.92 1011.14 1011.36 1011.57 1011.77 1011.98 1012.23 1012.54 1012.94 1013.42 1013.96 1014.52 1015.07 1015.58 1016.00 1016.36 1016.64 1016.86
1019.03 1019.05 1019.22 1019.55 1020.04 1020.63 1021.21 1021.69 1021.98 1022.01 1021.79 1021.35 1020.74 1020.06 1019.36 1018.71 1018.13 1017.61 1017.11 1016.59 1015.99 1015.31 1014.55 1013.73 1012.91 1012.16 1011.53 1011.06 1010.78 1010.67 1010.70 1010.83 1011.00 1011.19 1011.37 1011.57 1011.78 1012.05 1012.39 1012.82 1013.33 1013.89 1014.46 1015.02 1015.53 1015.97 1016.34 1016.64 1016.89
1019.59 1019.68 1019.95 1020.41 1021.02 1021.71 1022.36 1022.85 1023.10 1023.06 1022.73 1022.16 1021.44 1020.66 1019.89 1019.20 1018.61 1018.10 1017.62 1017.12 1016.56 1015.88 1015.11 1014.26 1013.40 1012.60 1011.91 1011.39 1011.04 1010.87 1010.84 1010.91 1011.04 1011.20 1011.37 1011.56 1011.78 1012.06 1012.41 1012.84 1013.34 1013.89 1014.44 1014.98 1015.46 1015.88 1016.23 1016.53 1016.81
1019.93 1020.11 1020.51 1021.10 1021.84 1022.62 1023.32 1023.82 1024.03 1023.91 1023.48 1022.80 1021.98 1021.12 1020.30 1019.58 1018.99 1018.50 1018.05 1017.59 1017.05 1016.40 1015.64 1014.79 1013.92 1013.09 1012.37 1011.80 1011.40 1011.18 1011.10 1011.13 1011.22 1011.36 1011.51 1011.69 1011.92 1012.19 1012.54 1012.95 1013.42 1013.92 1014.42 1014.89 1015.31 1015.68 1016.00 1016.30 1016.58
1020.16 1020.46 1020.99 1021.73 1022.58 1023.44 1024.18 1024.67 1024.83 1024.63 1024.11 1023.35 1022.44 1021.52 1020.66 1019.92 1019.33 1018.85 1018.43 1018.00 1017.48 1016.86 1016.12 1015.29 1014.42 1013.59 1012.85 1012.26 1011.83 1011.57 1011.45 1011.44 1011.50 1011.61 1011.75 1011.91 1012.12 1012.38 1012.69 1013.07 1013.48 1013.91 1014.33 1014.72 1015.07 1015.37 1015.65 1015.92 1016.19
1020.41 1020.84 1021.51 1022.36 1023.32 1024.24 1024.99 1025.45 1025.56 1025.29 1024.69 1023.85 1022.89 1021.92 1021.04 1020.29 1019.69 1019.22 1018.80 1018.38 1017.88 1017.27 1016.55 1015.73 1014.88 1014.06 1013.32 1012.72 1012.28 1011.99 1011.84 1011.79 1011.81 1011.89 1012.00 1012.14 1012.31 1012.54 1012.81 1013.13 1013.47 1013.82 1014.16 1014.46 1014.72 1014.96 1015.18 1015.42 1015.68
1020.80 1021.34 1022.13 1023.08 1024.10 1025.04 1025.77 1026.19 1026.24 1025.90 1025.24 1024.36 1023.36 1022.37 1021.46 1020.70 1020.10 1019.61 1019.18 1018.74 1018.24 1017.63 1016.91 1016.11 1015.28 1014.48 1013.76 1013.16 1012.71 1012.40 1012.21 1012.13 1012.12 1012.15 1012.21 1012.31 1012.44 1012.62 1012.84 1013.09 1013.37 1013.64 1013.89 1014.11 1014.30 1014.47 1014.65 1014.85 1015.10
1021.36 1022.00 1022.87 1023.88 1024.91 1025.83 1026.51 1026.87 1026.85 1026.45 1025.75 1024.84 1023.82 1022.82 1021.91 1021.14 1020.52 1020.00 1019.54 1019.08 1018.55 1017.92 1017.21 1016.43 1015.62 1014.84 1014.14 1013.56 1013.11 1012.79 1012.57 1012.45 1012.38 1012.36 1012.37 1012.41 1012.49 1012.61 1012.77 1012.96 1013.17 1013.38 1013.56 1013.72 1013.85 1013.97 1014.11 1014.27 1014.50
1022.07 1022.77 1023.67 1024.68 1025.67 1026.53 1027.13 1027.40 1027.32 1026.87 1026.14 1025.22 1024.21 1023.22 1022.32 1021.55 1020.91 1020.36 1019.86 1019.36 1018.80 1018.16 1017.44 1016.68 1015.90 1015.16 1014.50 1013.94 1013.50 1013.16 1012.92 1012.75 1012.62 1012.53 1012.48 1012.45 1012.47 1012.53 1012.63 1012.77 1012.92 1013.08 1013.22 1013.34 1013.44 1013.52 1013.62 1013.76 1013.96
1022.81 1023.53 1024.42 1025.37 1026.27 1027.03 1027.52 1027.70 1027.54 1027.06 1026.32 1025.42 1024.45 1023.50 1022.63 1021.86 1021.21 1020.64 1020.10 1019.56 1018.97 1018.32 1017.62 1016.89 1016.16 1015.47 1014.85 1014.33 1013.90 1013.55 1013.28 1013.05 1012.86 1012.70 1012.57 1012.47 1012.42 1012.42 1012.47 1012.57 1012.69 1012.81 1012.93 1013.03 1013.11 1013.18 1013.26 1013.38 1013.55
1023.46 1024.15 1024.97 1025.81 1026.59 1027.21 1027.59 1027.67 1027.45 1026.95 1026.23 1025.38 1024.47 1023.58 1022.75 1022.01 1021.36 1020.78 1020.22 1019.66 1019.06 1018.43 1017.76 1017.08 1016.41 1015.80 1015.24 1014.76 1014.35 1014.00 1013.70 1013.42 1013.16 1012.92 1012.71 1012.54 1012.42 1012.37 1012.38 1012.44 1012.53 1012.65 1012.76 1012.85 1012.92 1012.99 1013.06 1013.15 1013.30
1023.89 1024.52 1025.23 1025.94 1026.57 1027.04 1027.29 1027.28 1027.03 1026.53 1025.86 1025.08 1024.26 1023.45 1022.69 1022.00 1021.37 1020.79 1020.23 1019.67 1019.09 1018.49 1017.88 1017.28 1016.70 1016.17 1015.70 1015.27 1014.89 1014.54 1014.20 1013.87 1013.55 1013.23 1012.95 1012.71 1012.53 1012.43 1012.40 1012.44 1012.52 1012.62 1012.73 1012.82 1012.89 1012.95 1013.01 1013.08 1013.20
Thickness
5847 5846 5842 5828 5798 5777 5777 5792 5803 5807 5812 5820 5823 5816 5804 5796 5790 5783 5804 5811 5808 5803 5800 5797 5795 5793 5791 5790 5788 5786 5785 5783 5782 5780 5779 5777 5776 5775 5775 5774 5774 5773 5773 5773 5773 5773 5773 5773 5774
5849 5846 5834 5814 5781 5762 5776 5798 5804 5812 5820 5825 5823 5817 5807 5801 5808 5805 5808 5810 5809 5805 5802 5799 5796 5794 5792 5791 5789 5787 5786 5784 5782 5780 5779 5777 5776 5775 5774 5773 5773 5772 5772 5772 5771 5771 5771 5771 5772
5851 5845 5822 5800 5781 5772 5785 5803 5810 5822 5830 5827 5818 5816 5809 5804 5810 5809 5813 5813 5809 5806 5803 5800 5798 5795 5793 5792 5790 5788 5786 5784 5783 5781 5779 5777 5776 5775 5774 5773 5772 5771 5771 5770 5770 5770 5770 5770 5770
5845 5830 5814 5793 5786 5797 5805 5812 5820 5820 5824 5826 5818 5807 5811 5821 5820 5817 5816 5814 5810 5807 5804 5801 5799 5797 5795 5793 5791 5789 5787 5785 5783 5781 5779 5777 5776 5774 5773 5772 5771 5770 5770 5769 5768 5768 5768 5768 5769
5840 5817 5794 5783 5793 5808 5817 5823 5825 5817 5816 5818 5815 5801 5803 5821 5826 5821 5817 5814 5811 5807 5805 5802 5800 5798 5796 5794 5792 5790 5788 5786 5784 5782 5780 5778 5776 5774 5773 5772 5771 5770 5769 5768 5767 5767 5767 5767 5767
5821 5805 5779 5773 5787 5807 5818 5826 5826 5818 5815 5817 5812 5801 5802 5820 5820 5818 5817 5815 5813 5809 5806 5803 5801 5799 5797 5794 5793 5791 5789 5787 5785 5782 5780 5778 5776 5774 5773 5771 5770 5769 5768 5767 5766 5766 5766 5766 5765
5812 5795 5778 5778 5784 5798 5815 5829 5822 5816 5815 5818 5819 5801 5803 5814 5821 5821 5818 5816 5813 5810 5807 5805 5802 5800 5798 5795 5793 5791 5789 5787 5785 5783 5780 5778 5776 5774 5773 5771 5770 5769 5768 5767 5766 5765 5765 5764 5764
5820 5796 5779 5777 5781 5791 5816 5827 5829 5824 5819 5830 5825 5803 5800 5815 5824 5822 5818 5814 5811 5809 5808 5805 5803 5801 5799 5796 5794 5792 5790 5788 5785 5783 5781 5778 5776 5774 5773 5771 5770 5768 5767 5766 5766 5765 5764 5764 5763
5821 5783 5769 5775 5779 5790 5815 5818 5826 5833 5826 5825 5826 5820 5822 5826 5824 5817 5812 5808 5806 5806 5806 5805 5803 5801 5799 5797 5795 5792 5790 5788 5785 5783 5781 5778 5776 5774 5772 5771 5769 5768 5767 5766 5765 5765 5764 5763 5762
5805 5775 5777 5789 5792 5796 5809 5814 5818 5815 5809 5809 5814 5821 5826 5823 5818 5812 5808 5805 5803 5804 5805 5805 5804 5802 5799 5797 5795 5792 5790 5787 5785 5783 5780 5778 5775 5773 5772 5771 5769 5768 5767 5765 5765 5764 5764 5763 5762
5805 5786 5790 5798 5806 5807 5806 5811 5816 5805 5794 5801 5804 5809 5814 5813 5811 5809 5808 5808 5808 5807 5806 5806 5804 5802 5799 5797 5795 5792 5789 5787 5784 5782 5779 5777 5774 5772 5771 5770 5769 5768 5766 5765 5764 5763 5763 5762 5761
5804 5801 5801 5803 5812 5811 5808 5809 5805 5800 5797 5808 5812 5812 5808 5804 5802 5803 5804 5806 5808 5807 5807 5807 5805 5802 5799 5797 5795 5792 5789 5786 5784 5782 5779 5776 5773 5772 5770 5769 5768 5767 5766 5764 5763 5762 5761 5761 5760
5802 5800 5806 5810 5811 5811 5809 5802 5798 5793 5800 5806 5806 5802 5797 5795 5794 5797 5800 5802 5803 5803 5805 5807 5806 5803 5800 5797 5794 5791 5789 5786 5784 5782 5779 5776 5773 5771 5769 5768 5766 5766 5765 5764 5762 5761 5760 5759 5759
5804 5804 5803 5805 5806 5805 5795 5789 5787 5782 5792 5791 5789 5784 5784 5784 5785 5786 5788 5790 5793 5796 5799 5802 5803 5802 5800 5797 5794 5792 5789 5786 5783 5782 5780 5777 5774 5771 5769 5767 5765 5764 5764 5763 5762 5760 5759 5759 5759
5808 5794 5790 5791 5795 5793 5789 5767 5764 5772 5778 5772 5769 5770 5771 5773 5775 5775 5777 5780 5784 5787 5791 5795 5798 5798 5796 5795 5793 5792 5789 5786 5783 5781 5779 5777 5775 5772 5769 5766 5764 5763 5762 5762 5760 5759 5758 5757 5756
5790 5773 5761 5774 5781 5783 5771 5739 5749 5761 5761 5753 5752 5753 5755 5759 5762 5765 5768 5771 5775 5779 5781 5785 5790 5791 5791 5791 5790 5789 5787 5785 5782 5780 5778 5777 5775 5773 5770 5766 5764 5763 5760 5759 5757 5756 5754 5753 5752
5756 5746 5748 5757 5768 5767 5752 5729 5737 5747 5745 5738 5737 5737 5740 5744 5748 5753 5758 5761 5764 5767 5771 5774 5778 5782 5784 5786 5787 5786 5784 5782 5780 5778 5776 5775 5773 5771 5769 5766 5764 5762 5759 5757 5756 5753 5752 5748 5747
5739 5739 5739 5739 5748 5745 5730 5719 5722 5727 5727 5721 5721 5722 5725 5728 5732 5739 5744 5748 5752 5756 5760 5765 5769 5772 5775 5777 5778 5779 5779 5778 5777 5775 5774 5772 5770 5768 5766 5764 5762 5760 5756 5753 5752 5749 5748 5745 5744
5746 5737 5730 5735 5742 5729 5715 5707 5705 5709 5710 5706 5705 5706 5708 5712 5719 5726 5730 5734 5738 5741 5745 5750 5756 5761 5764 5766 5766 5768 5770 5770 5770 5769 5769 5769 5766 5764 5762 5760 5758 5756 5752 5749 5748 5745 5742 5739 5738
5738 5727 5721 5726 5733 5721 5703 5694 5694 5694 5692 5691 5689 5690 5692 5698 5704 5709 5714 5718 5721 5725 5730 5736 5741 5748 5753 5756 5759 5762 5764 5764 5763 5763 5761 5761 5760 5758 5756 5754 5752 5751 5748 5744 5743 5740 5735 5733 5733
5728 5721 5719 5716 5718 5713 5698 5678 5675 5680 5681 5681 5680 5678 5679 5683 5686 5691 5696 5700 5705 5710 5716 5722 5727 5734 5740 5746 5750 5752 5752 5752 5751 5752 5753 5753 5752 5752 5750 5748 5747 5745 5743 5739 5737 5736 5731 5725 5725
5716 5728 5724 5717 5700 5684 5687 5657 5655 5661 5663 5666 5665 5665 5666 5669 5673 5676 5681 5684 5689 5695 5702 5708 5714 5720 5727 5734 5738 5740 5741 5742 5743 5745 5745 5745 5744 5744 5743 5743 5742 5740 5738 5735 5733 5731 5728 5723 5717
5722 5727 5719 5711 5694 5675 5669 5649 5641 5649 5647 5649 5652 5654 5655 5658 5661 5664 5667 5670 5676 5683 5689 5694 5700 5707 5714 5721 5728 5732 5734 5735 5736 5736 5736 5736 5736 5736 5735 5736 5735 5733 5731 5730 5728 5726 5724 5721 5716
5723 5716 5706 5690 5674 5652 5650 5639 5628 5632 5632 5637 5642 5644 5646 5649 5652 5654 5657 5660 5664 5671 5676 5682 5687 5694 5702 5708 5715 5720 5723 5725 5726 5726 5726 5726 5726 5727 5728 5728 5727 5726 5725 5723 5722 5721 5720 5717 5714
5707 5686 5667 5658 5643 5639 5646 5633 5624 5630 5633 5631 5632 5634 5638 5640 5643 5645 5648 5650 5654 5659 5665 5670 5676 5682 5689 5696 5703 5708 5712 5715 5717 5718 5718 5717 5717 5718 5720 5720 5719 5718 5718 5716 5715 5714 5713 5712 5710
5697 5680 5655 5644 5637 5634 5636 5624 5623 5632 5632 5631 5630 5630 5632 5634 5636 5637 5640 5643 5646 5651 5655 5660 5665 5671 5678 5685 5691 5697 5701 5704 5706 5708 5709 5710 5710 5711 5712 5711 5712 5711 5710 5709 5708 5707 5706 5707 5705
5690 5677 5674 5651 5644 5628 5623 5624 5627 5632 5629 5628 5628 5627 5628 5629 5631 5632 5636 5638 5641 5644 5648 5652 5657 5662 5669 5676 5681 5686 5689 5692 5695 5698 5700 5702 5703 5703 5703 5703 5703 5703 5703 5703 5702 5701 5700 5701 5700
5692 5681 5659 5645 5631 5619 5620 5617 5613 5619 5620 5622 5622 5622 5623 5625 5628 5629 5631 5634 5636 5639 5643 5647 5651 5655 5661 5667 5672 5677 5680 5684 5687 5690 5691 5693 5694 5696 5696 5696 5695 5695 5696 5696 5696 5696 5695 5695 5695
5680 5671 5655 5640 5633 5618 5610 5612 5625 5620 5620 5619 5620 5620 5621 5622 5625 5626 5628 5631 5634 5637 5639 5642 5646 5650 5654 5659 5664 5668 5672 5676 5679 5681 5683 5685 5687 5689 5688 5689 5688 5688 5689 5689 5689 5689 5689 5689 5690
5683 5672 5656 5636 5628 5622 5611 5612 5633 5627 5624 5621 5620 5621 5622 5622 5624 5626 5627 5629 5631 5633 5636 5638 5642 5645 5649 5653 5657 5661 5665 5668 5670 5672 5676 5679 5681 5682 5682 5683 5682 5682 5683 5684 5683 5683 5683 5683 5683